Tiempo cada hora Abay

Hoy, 20 Octubre, Martes

Tiempo Temperatura Precipitaciones Viento Presión Humedad
00:00 +4°C° 0 mm 3 mps 722 mmHg 26%
01:00 +4°C° 0 mm 3 mps 721 mmHg 26%
02:00 +4°C° 0 mm 3 mps 720 mmHg 26%
03:00 +3°C° 0 mm 3 mps 720 mmHg 26%
04:00 +3°C° 0 mm 3 mps 720 mmHg 26%
05:00 +4°C° 0 mm 2 mps 720 mmHg 26%
06:00 +5°C° 0 mm 2 mps 720 mmHg 26%
07:00 +5°C° 0 mm 2 mps 720 mmHg 25%
08:00 +7°C° 0 mm 1 mps 719 mmHg 25%
09:00 +9°C° 0 mm 1 mps 719 mmHg 23%
10:00 +11°C° 0 mm 1 mps 719 mmHg 21%
11:00 +12°C° 0 mm 1 mps 719 mmHg 19%
12:00 +13°C° 0 mm 1 mps 719 mmHg 19%
13:00 +15°C° 0 mm 1 mps 718 mmHg 18%
14:00 +16°C° 0 mm 1 mps 718 mmHg 18%
15:00 +14°C° 0 mm 1 mps 717 mmHg 20%
16:00 +13°C° 0 mm 1 mps 717 mmHg 22%
17:00 +12°C° 0 mm 1 mps 717 mmHg 24%
18:00 +11°C° 0 mm 1 mps 716 mmHg 23%
19:00 +10°C° 0 mm 1 mps 716 mmHg 22%
20:00 +10°C° 0 mm 1 mps 716 mmHg 21%
21:00 +9°C° 0 mm 2 mps 716 mmHg 20%
22:00 +9°C° 0 mm 2 mps 715 mmHg 19%
23:00 +9°C° 0 mm 3 mps 715 mmHg 18%

Mañana, 21 Octubre, Miércoles

Tiempo Temperatura Precipitaciones Viento Presión Humedad
00:00 +8°C° 0 mm 3 mps 715 mmHg 18%
01:00 +8°C° 0 mm 3 mps 714 mmHg 19%
02:00 +7°C° 0 mm 3 mps 713 mmHg 19%
03:00 +7°C° 0 mm 3 mps 714 mmHg 20%
04:00 +5°C° 0 mm 3 mps 714 mmHg 21%
05:00 +5°C° 0 mm 3 mps 714 mmHg 21%
06:00 +5°C° 0 mm 3 mps 713 mmHg 21%
07:00 +7°C° 0 mm 3 mps 713 mmHg 21%
08:00 +7°C° 0 mm 3 mps 712 mmHg 21%
09:00 +8°C° 0 mm 4 mps 712 mmHg 19%
10:00 +12°C° 0 mm 5 mps 712 mmHg 17%
11:00 +14°C° 0 mm 5 mps 712 mmHg 15%
12:00 +15°C° 0 mm 6 mps 711 mmHg 16%
13:00 +15°C° 0 mm 6 mps 711 mmHg 17%
14:00 +15°C° 0 mm 7 mps 710 mmHg 17%
15:00 +14°C° 0 mm 6 mps 710 mmHg 21%
16:00 +13°C° 0 mm 6 mps 710 mmHg 24%
17:00 +12°C° 0 mm 5 mps 709 mmHg 27%
18:00 +10°C° 0 mm 5 mps 709 mmHg 28%
19:00 +10°C° 0 mm 5 mps 709 mmHg 29%
20:00 +9°C° 0 mm 6 mps 708 mmHg 30%
21:00 +9°C° 0 mm 6 mps 708 mmHg 31%
22:00 +10°C° 0 mm 7 mps 708 mmHg 32%
23:00 +10°C° 0 mm 7 mps 708 mmHg 33%

Pasado mañana, 22 Octubre, Jueves

Tiempo Temperatura Precipitaciones Viento Presión Humedad
00:00 +9°C° 0 mm 7 mps 708 mmHg 47%
01:00 +6°C° 0 mm 7 mps 708 mmHg 60%
02:00 +5°C° 0 mm 6 mps 708 mmHg 73%
03:00 +5°C° 0.1 mm 7 mps 709 mmHg 75%
04:00 +4°C° 0.1 mm 7 mps 709 mmHg 77%
05:00 +3°C° 0.1 mm 7 mps 709 mmHg 80%
06:00 +3°C° 0.1 mm 7 mps 710 mmHg 73%
07:00 +2°C° 0.1 mm 7 mps 710 mmHg 66%
08:00 0°C° 0.1 mm 7 mps 711 mmHg 59%
09:00 +2°C° 0 mm 7 mps 712 mmHg 55%
10:00 +2°C° 0 mm 8 mps 713 mmHg 51%
11:00 +2°C° 0 mm 8 mps 713 mmHg 47%
12:00 +4°C° 0 mm 8 mps 713 mmHg 43%
13:00 +4°C° 0 mm 8 mps 713 mmHg 40%
14:00 +5°C° 0 mm 8 mps 713 mmHg 36%
15:00 +4°C° 0 mm 8 mps 713 mmHg 38%
16:00 +4°C° 0 mm 7 mps 714 mmHg 39%
17:00 +4°C° 0 mm 6 mps 714 mmHg 40%
18:00 +3°C° 0 mm 6 mps 714 mmHg 42%
19:00 +3°C° 0 mm 5 mps 714 mmHg 44%
20:00 +4°C° 0 mm 4 mps 714 mmHg 46%
21:00 +3°C° 0 mm 4 mps 714 mmHg 48%
22:00 +3°C° 0 mm 4 mps 714 mmHg 49%
23:00 +3°C° 0 mm 4 mps 714 mmHg 51%

23 Octubre, Viernes

Tiempo Temperatura Precipitaciones Viento Presión Humedad
00:00 +1°C° 0 mm 4 mps 714 mmHg 56%
01:00 +1°C° 0 mm 4 mps 714 mmHg 61%
02:00 0°C° 0 mm 4 mps 714 mmHg 67%
03:00 -1°C° 0.1 mm 4 mps 714 mmHg 70%
04:00 -1°C° 0.1 mm 4 mps 714 mmHg 73%
05:00 0°C° 0.1 mm 3 mps 714 mmHg 76%
06:00 -2°C° 0.1 mm 4 mps 714 mmHg 74%
07:00 -2°C° 0.1 mm 4 mps 714 mmHg 72%
08:00 -2°C° 0.1 mm 4 mps 715 mmHg 70%
09:00 -1°C° 0 mm 5 mps 715 mmHg 61%
10:00 -1°C° 0 mm 5 mps 715 mmHg 53%
11:00 -1°C° 0 mm 6 mps 715 mmHg 44%
12:00 -1°C° 0 mm 6 mps 715 mmHg 42%
13:00 -1°C° 0 mm 6 mps 716 mmHg 40%
14:00 +1°C° 0 mm 6 mps 716 mmHg 38%
15:00 0°C° 0 mm 5 mps 716 mmHg 40%
16:00 0°C° 0 mm 5 mps 716 mmHg 43%
17:00 -1°C° 0 mm 5 mps 716 mmHg 45%
18:00 -1°C° 0 mm 4 mps 717 mmHg 48%
19:00 -2°C° 0 mm 4 mps 717 mmHg 51%
20:00 -2°C° 0 mm 3 mps 718 mmHg 54%
21:00 -2°C° 0 mm 3 mps 718 mmHg 55%
22:00 -2°C° 0 mm 3 mps 718 mmHg 57%
23:00 -4°C° 0 mm 3 mps 719 mmHg 58%

24 Octubre, Sábado

Tiempo Temperatura Precipitaciones Viento Presión Humedad
00:00 -4°C° 0 mm 3 mps 719 mmHg 61%
01:00 -5°C° 0 mm 3 mps 719 mmHg 64%
02:00 -5°C° 0 mm 3 mps 719 mmHg 66%
03:00 -5°C° 0 mm 3 mps 719 mmHg 68%
04:00 -6°C° 0 mm 3 mps 719 mmHg 70%
05:00 -6°C° 0 mm 3 mps 720 mmHg 72%
06:00 -6°C° 0 mm 3 mps 720 mmHg 70%
07:00 -5°C° 0 mm 3 mps 721 mmHg 68%
08:00 -5°C° 0 mm 3 mps 721 mmHg 66%
09:00 -4°C° 0 mm 4 mps 721 mmHg 61%
10:00 -3°C° 0 mm 4 mps 722 mmHg 56%
11:00 -2°C° 0 mm 5 mps 722 mmHg 50%
12:00 -1°C° 0 mm 5 mps 722 mmHg 49%
13:00 -1°C° 0 mm 5 mps 722 mmHg 47%
14:00 -1°C° 0 mm 5 mps 722 mmHg 45%
15:00 -1°C° 0 mm 4 mps 723 mmHg 47%
16:00 -1°C° 0 mm 3 mps 723 mmHg 48%
17:00 -1°C° 0 mm 2 mps 723 mmHg 49%
18:00 -2°C° 0 mm 2 mps 723 mmHg 51%
19:00 -2°C° 0 mm 2 mps 723 mmHg 53%
20:00 -3°C° 0 mm 2 mps 723 mmHg 54%
21:00 -3°C° 0 mm 2 mps 724 mmHg 55%
22:00 -3°C° 0 mm 2 mps 724 mmHg 55%
23:00 -4°C° 0 mm 3 mps 724 mmHg 55%

25 Octubre, Domingo

Tiempo Temperatura Precipitaciones Viento Presión Humedad
00:00 -4°C° 0 mm 3 mps 723 mmHg 55%
01:00 -4°C° 0 mm 3 mps 723 mmHg 54%
02:00 -4°C° 0 mm 4 mps 723 mmHg 54%
03:00 -4°C° 0 mm 4 mps 723 mmHg 52%
04:00 -3°C° 0 mm 4 mps 722 mmHg 50%
05:00 -4°C° 0 mm 5 mps 722 mmHg 48%
06:00 -2°C° 0 mm 5 mps 722 mmHg 46%
07:00 -3°C° 0 mm 6 mps 721 mmHg 44%
08:00 -2°C° 0 mm 6 mps 721 mmHg 42%
09:00 -1°C° 0 mm 7 mps 721 mmHg 42%
10:00 +1°C° 0 mm 9 mps 720 mmHg 41%
11:00 +2°C° 0 mm 10 mps 720 mmHg 41%
12:00 +1°C° 0.1 mm 10 mps 720 mmHg 47%
13:00 +1°C° 0.1 mm 10 mps 719 mmHg 54%
14:00 +1°C° 0.1 mm 9 mps 719 mmHg 60%
15:00 0°C° 0.9 mm 9 mps 719 mmHg 72%
16:00 -1°C° 0.9 mm 9 mps 719 mmHg 84%
17:00 -3°C° 0.9 mm 9 mps 718 mmHg 95%
18:00 -1°C° 0.2 mm 9 mps 719 mmHg 92%
19:00 -1°C° 0.2 mm 8 mps 719 mmHg 88%
20:00 0°C° 0.2 mm 7 mps 719 mmHg 85%
21:00 0°C° 0.1 mm 7 mps 719 mmHg 84%
22:00 0°C° 0.1 mm 7 mps 718 mmHg 83%
23:00 +2°C° 0.1 mm 7 mps 718 mmHg 82%

26 Octubre, Lunes

Tiempo Temperatura Precipitaciones Viento Presión Humedad
00:00 +2°C° 0 mm 7 mps 718 mmHg 83%
01:00 +2°C° 0 mm 7 mps 718 mmHg 83%
02:00 +2°C° 0 mm 6 mps 718 mmHg 84%
03:00 +2°C° 0.1 mm 6 mps 718 mmHg 80%
04:00 +2°C° 0.1 mm 6 mps 718 mmHg 76%
05:00 +2°C° 0.1 mm 6 mps 718 mmHg 72%
06:00 +2°C° 0 mm 6 mps 719 mmHg 76%
07:00 +2°C° 0 mm 6 mps 719 mmHg 79%
08:00 +2°C° 0 mm 6 mps 719 mmHg 82%
09:00 +3°C° 0.2 mm 6 mps 719 mmHg 85%
10:00 +3°C° 0.2 mm 6 mps 719 mmHg 87%
11:00 +4°C° 0.2 mm 7 mps 719 mmHg 90%
12:00 +4°C° 0.2 mm 6 mps 719 mmHg 90%
13:00 +4°C° 0.2 mm 6 mps 720 mmHg 91%
14:00 +5°C° 0.2 mm 5 mps 720 mmHg 91%
15:00 +5°C° 0.1 mm 5 mps 720 mmHg 90%
16:00 +5°C° 0.1 mm 5 mps 720 mmHg 88%
17:00 +5°C° 0.1 mm 4 mps 720 mmHg 87%
18:00 +5°C° 0.1 mm 4 mps 721 mmHg 87%
19:00 +5°C° 0.1 mm 3 mps 721 mmHg 88%
20:00 +6°C° 0.1 mm 2 mps 721 mmHg 88%
21:00 +6°C° 0 mm 2 mps 721 mmHg 85%
22:00 +6°C° 0 mm 2 mps 721 mmHg 82%
23:00 +6°C° 0 mm 2 mps 721 mmHg 79%
Mostrar más

Necesitamos Su Consentimiento

Meteoprog y nuestros Proveedores de Servicios pueden almacenar y acceder a sus datos personales como cookies, identificadores de dispositivo u otras tecnologías similares de su dispositivo y procesar dichos datos para personalizar contenido y anuncios, además de ofrecer funciones de redes sociales y analizar el tráfico.

  • Almacenar y/o acceder a información en su dispositivo

    Se puede almacenar o acceder a cookies, identificadores de dispositivo u otra información de su dispositivo para los fines anteriormente indicados.

  • Anuncios y contenido personalizados, medición de anuncios y contenido, percepciones del público, y desarrollo de productos

    Los anuncios y el contenido pueden personalizarse en base a su perfil. Se pueden añadir más datos para personalizar mejor los anuncios y contenidos. Se puede medir el rendimiento de los anuncios y contenidos. Se puede obtener la percepción sobre el público que ha visto los anuncios y contenidos. Dichos datos pueden usarse para desarrollar o mejorar la experiencia del usuario, sistemas y software.

Al hacer clic en ‘Estoy De Acuerdo’ usted permitirá el uso de las cookies, identificadores de dispositivo, balizas web u otras tecnologías similares indicadas. Su configuración puede cambiarse desde el navegador de su dispositivo.

Para ciertos fines, los intereses legítimos pueden ser considerados por encima del consentimiento. Puede leer más sobre ello en nuestra Política de Privacidad y Cookies.